When you browse on this site, cookies collect data to enhance your experience and personalize the content and advertising you see.
Visit our Privacy Policy to learn more. By continuing to use the site, you agree to this use of cookies and data.
  • In Hungary
  • List of Countries
  • For 7 days
  • Water Temperature
  • Satellite Maps
  • Weather Map
  • News
  • Weather Widgets
  • user-avatar
    Login

    Hourly Weather Cacem

    Today, 22 July, Monday

    Time Temperature Precipitation Wind Pressure Humidity
    00:00 +17°C° 0 mm 5 mps 750 mmHg 83%
    01:00 +17°C° 0 mm 4 mps 750 mmHg 85%
    02:00 +17°C° 0 mm 3 mps 749 mmHg 86%
    03:00 +17°C° 0 mm 3 mps 749 mmHg 87%
    04:00 +17°C° 0 mm 3 mps 749 mmHg 89%
    05:00 +17°C° 0 mm 3 mps 749 mmHg 90%
    06:00 +19°C° 0 mm 3 mps 750 mmHg 80%
    07:00 +22°C° 0 mm 3 mps 750 mmHg 71%
    08:00 +25°C° 0 mm 3 mps 750 mmHg 61%
    09:00 +26°C° 0 mm 4 mps 750 mmHg 56%
    10:00 +28°C° 0 mm 4 mps 750 mmHg 50%
    11:00 +30°C° 0 mm 4 mps 750 mmHg 45%
    12:00 +30°C° 0 mm 5 mps 749 mmHg 44%
    13:00 +30°C° 0 mm 5 mps 749 mmHg 44%
    14:00 +30°C° 0 mm 6 mps 749 mmHg 43%
    15:00 +29°C° 0 mm 6 mps 749 mmHg 49%
    16:00 +27°C° 0 mm 6 mps 748 mmHg 55%
    17:00 +24°C° 0 mm 6 mps 748 mmHg 62%
    18:00 +23°C° 0 mm 6 mps 748 mmHg 69%
    19:00 +21°C° 0 mm 6 mps 748 mmHg 77%
    20:00 +20°C° 0 mm 6 mps 748 mmHg 85%
    21:00 +20°C° 0 mm 6 mps 748 mmHg 85%
    22:00 +19°C° 0 mm 5 mps 748 mmHg 86%
    23:00 +19°C° 0 mm 4 mps 748 mmHg 86%

    Tomorrow, 23 July, Tuesday

    Time Temperature Precipitation Wind Pressure Humidity
    00:00 +19°C° 0 mm 4 mps 748 mmHg 86%
    01:00 +19°C° 0 mm 3 mps 748 mmHg 87%
    02:00 +19°C° 0 mm 3 mps 748 mmHg 87%
    03:00 +19°C° 0 mm 4 mps 748 mmHg 88%
    04:00 +19°C° 0 mm 4 mps 748 mmHg 89%
    05:00 +17°C° 0 mm 5 mps 747 mmHg 90%
    06:00 +20°C° 0 mm 5 mps 748 mmHg 83%
    07:00 +21°C° 0 mm 4 mps 748 mmHg 75%
    08:00 +23°C° 0 mm 4 mps 748 mmHg 68%
    09:00 +26°C° 0 mm 4 mps 748 mmHg 59%
    10:00 +28°C° 0 mm 4 mps 748 mmHg 51%
    11:00 +30°C° 0 mm 5 mps 748 mmHg 42%
    12:00 +29°C° 0 mm 6 mps 748 mmHg 43%
    13:00 +29°C° 0 mm 6 mps 748 mmHg 44%
    14:00 +28°C° 0 mm 7 mps 748 mmHg 45%
    15:00 +27°C° 0 mm 7 mps 748 mmHg 48%
    16:00 +26°C° 0 mm 7 mps 747 mmHg 52%
    17:00 +24°C° 0 mm 7 mps 747 mmHg 55%
    18:00 +23°C° 0 mm 6 mps 747 mmHg 61%
    19:00 +21°C° 0 mm 6 mps 748 mmHg 66%
    20:00 +20°C° 0 mm 5 mps 748 mmHg 72%
    21:00 +20°C° 0 mm 5 mps 748 mmHg 74%
    22:00 +19°C° 0 mm 4 mps 747 mmHg 77%
    23:00 +19°C° 0 mm 4 mps 747 mmHg 80%

    Day after tomorrow, 24 July, Wednesday

    Time Temperature Precipitation Wind Pressure Humidity
    00:00 +18°C° 0 mm 3 mps 747 mmHg 81%
    01:00 +18°C° 0 mm 3 mps 747 mmHg 82%
    02:00 +18°C° 0 mm 3 mps 746 mmHg 83%
    03:00 +18°C° 0 mm 2 mps 746 mmHg 83%
    04:00 +18°C° 0 mm 2 mps 746 mmHg 84%
    05:00 +17°C° 0 mm 2 mps 746 mmHg 85%
    06:00 +20°C° 0 mm 2 mps 746 mmHg 74%
    07:00 +23°C° 0 mm 2 mps 747 mmHg 62%
    08:00 +25°C° 0 mm 3 mps 747 mmHg 51%
    09:00 +27°C° 0 mm 3 mps 747 mmHg 45%
    10:00 +29°C° 0 mm 3 mps 746 mmHg 39%
    11:00 +31°C° 0 mm 3 mps 746 mmHg 33%
    12:00 +32°C° 0 mm 4 mps 746 mmHg 34%
    13:00 +30°C° 0 mm 4 mps 746 mmHg 35%
    14:00 +30°C° 0 mm 4 mps 745 mmHg 36%
    15:00 +29°C° 0 mm 4 mps 745 mmHg 46%
    16:00 +27°C° 0 mm 5 mps 745 mmHg 56%
    17:00 +26°C° 0 mm 5 mps 745 mmHg 66%
    18:00 +23°C° 0 mm 4 mps 746 mmHg 73%
    19:00 +22°C° 0 mm 3 mps 746 mmHg 80%
    20:00 +21°C° 0 mm 3 mps 746 mmHg 88%
    21:00 +21°C° 0 mm 2 mps 746 mmHg 89%
    22:00 +20°C° 0 mm 2 mps 746 mmHg 90%
    23:00 +20°C° 0 mm 2 mps 746 mmHg 91%

    25 July, Thursday

    Time Temperature Precipitation Wind Pressure Humidity
    00:00 +20°C° 0 mm 2 mps 746 mmHg 92%
    01:00 +20°C° 0 mm 2 mps 746 mmHg 93%
    02:00 +20°C° 0 mm 2 mps 746 mmHg 94%
    03:00 +20°C° 0 mm 2 mps 746 mmHg 93%
    04:00 +20°C° 0 mm 2 mps 746 mmHg 93%
    05:00 +20°C° 0 mm 2 mps 746 mmHg 93%
    06:00 +21°C° 0 mm 2 mps 747 mmHg 84%
    07:00 +24°C° 0 mm 2 mps 747 mmHg 75%
    08:00 +25°C° 0 mm 2 mps 747 mmHg 67%
    09:00 +26°C° 0 mm 3 mps 747 mmHg 64%
    10:00 +27°C° 0 mm 3 mps 747 mmHg 61%
    11:00 +28°C° 0 mm 4 mps 747 mmHg 59%
    12:00 +27°C° 0 mm 4 mps 747 mmHg 59%
    13:00 +27°C° 0 mm 5 mps 747 mmHg 60%
    14:00 +27°C° 0 mm 5 mps 748 mmHg 60%
    15:00 +26°C° 0 mm 6 mps 748 mmHg 62%
    16:00 +24°C° 0 mm 6 mps 748 mmHg 63%
    17:00 +23°C° 0 mm 6 mps 748 mmHg 65%
    18:00 +22°C° 0 mm 6 mps 749 mmHg 70%
    19:00 +21°C° 0 mm 5 mps 749 mmHg 75%
    20:00 +19°C° 0 mm 5 mps 749 mmHg 80%
    21:00 +19°C° 0 mm 5 mps 749 mmHg 81%
    22:00 +17°C° 0 mm 5 mps 749 mmHg 82%
    23:00 +17°C° 0 mm 5 mps 750 mmHg 83%

    26 July, Friday

    Time Temperature Precipitation Wind Pressure Humidity
    00:00 +17°C° 0 mm 5 mps 749 mmHg 85%
    01:00 +17°C° 0 mm 5 mps 749 mmHg 86%
    02:00 +16°C° 0 mm 5 mps 749 mmHg 88%
    03:00 +16°C° 0 mm 5 mps 749 mmHg 88%
    04:00 +16°C° 0 mm 5 mps 750 mmHg 89%
    05:00 +16°C° 0 mm 5 mps 750 mmHg 89%
    06:00 +17°C° 0 mm 5 mps 750 mmHg 79%
    07:00 +20°C° 0 mm 6 mps 750 mmHg 68%
    08:00 +21°C° 0 mm 6 mps 751 mmHg 58%
    09:00 +23°C° 0 mm 7 mps 751 mmHg 53%
    10:00 +24°C° 0 mm 7 mps 751 mmHg 48%
    11:00 +26°C° 0 mm 7 mps 751 mmHg 43%
    12:00 +26°C° 0 mm 8 mps 751 mmHg 43%
    13:00 +26°C° 0 mm 8 mps 750 mmHg 44%
    14:00 +26°C° 0 mm 8 mps 750 mmHg 44%
    15:00 +24°C° 0 mm 8 mps 750 mmHg 47%
    16:00 +23°C° 0 mm 8 mps 750 mmHg 49%
    17:00 +22°C° 0 mm 8 mps 750 mmHg 52%
    18:00 +21°C° 0 mm 8 mps 750 mmHg 58%
    19:00 +18°C° 0 mm 8 mps 750 mmHg 64%
    20:00 +17°C° 0 mm 8 mps 751 mmHg 69%
    21:00 +17°C° 0 mm 8 mps 751 mmHg 72%
    22:00 +17°C° 0 mm 7 mps 751 mmHg 74%
    23:00 +17°C° 0 mm 7 mps 751 mmHg 77%

    27 July, Saturday

    Time Temperature Precipitation Wind Pressure Humidity
    00:00 +17°C° 0 mm 7 mps 750 mmHg 78%
    01:00 +16°C° 0 mm 7 mps 750 mmHg 79%
    02:00 +16°C° 0 mm 6 mps 750 mmHg 80%
    03:00 +16°C° 0 mm 6 mps 750 mmHg 81%
    04:00 +16°C° 0 mm 6 mps 750 mmHg 81%
    05:00 +16°C° 0 mm 6 mps 750 mmHg 82%
    06:00 +19°C° 0 mm 6 mps 750 mmHg 72%
    07:00 +21°C° 0 mm 6 mps 750 mmHg 62%
    08:00 +22°C° 0 mm 6 mps 750 mmHg 51%
    09:00 +24°C° 0 mm 7 mps 750 mmHg 47%
    10:00 +26°C° 0 mm 7 mps 750 mmHg 42%
    11:00 +28°C° 0 mm 7 mps 750 mmHg 38%
    12:00 +28°C° 0 mm 7 mps 750 mmHg 39%
    13:00 +27°C° 0 mm 7 mps 749 mmHg 40%
    14:00 +27°C° 0 mm 8 mps 749 mmHg 41%
    15:00 +26°C° 0 mm 8 mps 749 mmHg 46%
    16:00 +24°C° 0 mm 8 mps 748 mmHg 52%
    17:00 +23°C° 0 mm 8 mps 748 mmHg 57%
    18:00 +22°C° 0 mm 7 mps 748 mmHg 65%
    19:00 +21°C° 0 mm 6 mps 749 mmHg 73%
    20:00 +19°C° 0 mm 6 mps 749 mmHg 81%
    21:00 +19°C° 0 mm 5 mps 749 mmHg 84%
    22:00 +19°C° 0 mm 5 mps 749 mmHg 87%
    23:00 +19°C° 0 mm 4 mps 749 mmHg 90%
    Show more